Cloud_Cover
37 5 3 5 3 0 0 0 0 0 0 0 0 0 0 0 0 0 0 0 0 0 0 0 0 0 0 0 0 0 0 28 0 0 2 46 100 95 6 17 100 100 100
0 0 0 0 0 0 0 0 0 0 0 0 0 0 0 0 0 0 0 0 0 0 0 0 0 0 0 0 0 0 0 0 0 17 20 98 100 100 25 5 89 100 100
5 5 3 0 0 1 0 0 0 0 0 0 0 0 0 0 0 0 0 0 0 0 0 0 0 0 0 0 0 0 0 8 5 5 85 23 12 46 35 84 78 100 100
2 0 0 0 0 0 0 0 0 0 0 0 0 0 0 0 0 0 0 0 0 0 0 0 0 0 0 2 0 0 0 0 14 62 5 5 16 9 62 100 100 100 100
2 19 2 2 2 3 0 0 0 0 0 0 0 0 0 0 0 0 0 0 0 0 0 0 0 0 2 1 1 0 3 2 55 5 5 10 5 8 5 91 100 100 100
7 36 36 5 0 0 0 0 0 0 0 0 0 0 0 0 0 0 0 0 0 0 0 0 0 0 0 4 29 4 34 2 6 35 51 71 58 50 100 39 100 100 100
0 0 0 0 0 0 0 0 0 0 0 0 0 0 0 0 0 0 0 0 0 0 0 0 0 0 0 5 17 4 10 5 5 13 54 100 100 100 100 100 100 100 100
0 0 0 0 0 0 0 0 0 0 0 0 0 0 0 0 0 0 0 0 0 0 0 0 0 1 0 5 5 6 5 7 9 13 92 100 96 99 96 100 100 100 100
0 1 1 0 3 0 0 0 0 0 0 0 0 0 0 0 0 0 0 0 0 0 0 0 0 5 5 24 41 10 46 44 39 100 100 100 100 100 100 100 100 100 100
0 21 0 34 36 0 5 5 0 0 3 5 6 10 0 0 0 0 0 0 0 0 0 0 0 2 5 5 15 26 47 5 5 100 100 100 98 100 100 100 100 100 100
1 13 30 19 52 100 96 26 23 7 5 100 96 33 99 17 0 0 0 0 0 0 0 0 0 1 8 38 68 38 34 18 5 100 100 100 100 100 100 100 100 100 100
84 100 100 99 15 20 75 47 71 97 99 40 43 84 100 61 11 3 1 0 0 0 0 0 0 3 40 37 90 20 5 8 2 100 100 100 100 100 100 100 100 97 88
11 67 20 5 2 1 2 14 94 100 100 93 20 22 68 100 32 19 25 9 9 2 25 22 29 48 99 40 92 59 16 29 32 100 100 100 100 100 100 100 100 100 100
72 1 0 0 0 0 0 0 0 81 99 100 100 92 53 98 100 27 26 19 18 22 27 37 97 99 99 20 13 44 12 4 17 95 100 100 100 100 100 100 100 100 100
5 4 4 5 5 4 0 0 0 0 0 24 85 95 98 70 85 18 11 8 8 24 24 43 46 62 46 16 21 11 16 11 2 10 100 100 100 100 100 100 100 97 29
97 95 100 6 0 0 0 0 0 0 0 0 7 98 100 97 48 51 5 4 5 0 1 3 10 20 11 1 10 11 11 8 5 89 100 100 100 100 100 100 99 92 35
41 36 9 4 0 0 0 0 0 0 0 0 2 5 87 100 100 90 64 0 4 4 0 0 6 7 9 5 0 13 68 100 94 66 100 100 100 100 100 100 100 100 57
14 5 5 5 0 0 0 0 0 0 0 2 1 5 99 76 100 77 97 91 0 3 4 0 0 1 5 2 5 58 55 97 100 100 100 100 100 100 100 100 100 44 100
0 0 0 0 0 0 0 0 3 1 0 0 30 69 36 99 73 100 97 98 39 1 48 6 1 0 4 3 14 32 58 78 47 100 100 100 100 100 100 100 100 74 72
0 0 0 0 0 0 0 0 0 0 0 1 0 0 10 7 91 100 99 100 100 7 3 60 23 3 12 3 2 33 76 51 100 87 100 100 97 100 100 100 95 6 56
4 0 0 0 0 0 0 0 0 0 0 0 2 0 0 6 7 94 100 100 98 100 23 26 4 10 80 15 7 84 76 90 68 99 100 100 100 100 100 100 92 86 48
4 0 0 0 0 0 0 0 0 0 2 8 0 4 29 1 2 5 32 100 98 94 100 90 82 100 100 100 7 52 100 100 100 76 65 96 100 99 100 100 100 99 76
0 0 0 0 0 0 0 0 0 0 1 40 40 73 100 97 18 3 8 15 100 100 100 100 100 100 100 100 71 2 92 93 71 100 86 89 95 100 100 100 100 100 92
0 0 0 0 0 0 0 27 62 82 100 89 99 100 100 100 100 30 0 0 0 41 100 100 100 100 100 40 65 99 88 61 99 100 100 88 90 100 100 100 100 94 69
0 0 0 0 0 2 5 51 74 100 100 100 100 100 100 100 100 100 4 0 0 30 11 100 100 100 100 100 100 100 100 100 100 12 99 100 100 99 100 100 100 100 75
0 0 0 1 0 5 21 66 77 100 100 100 100 100 100 100 100 100 15 0 0 0 22 94 100 100 100 100 100 100 100 100 100 4 27 73 56 87 100 100 98 83 84